EW9852 Weather Reports


Display with metric or nautical units.
time (UTC)temp
F
wind
direction
speed
MPH
gust
MPH
rain 1hr
in
rain 24hr
in
rain mn
in
humidity
%
barometer
mb
20260505224501 76 226 1.0 7.0 0.00 0.00 0.00 44 1003.8
20260505223001 77 248 2.0 5.0 0.00 0.00 0.00 41 1003.6
20260505221602 77 238 2.0 11.0 0.00 0.00 0.00 38 1003.6
20260505220100 77 237 1.0 9.0 0.00 0.00 0.00 39 1003.5
20260505214621 78 205 2.0 6.0 0.00 0.00 0.00 37 1003.3
20260505213104 78 209 2.0 5.0 0.00 0.00 0.00 36 1003.1
20260505211607 79 254 3.0 8.0 0.00 0.00 0.00 35 1002.9
20260505210057 79 221 3.0 7.0 0.00 0.00 0.00 35 1003.0
20260505204557 79 244 3.0 14.0 0.00 0.00 0.00 35 1003.2
20260505203057 79 232 5.0 11.0 0.00 0.00 0.00 35 1003.0
20260505201558 79 244 5.0 15.0 0.00 0.00 0.00 36 1003.0
20260505200105 78 203 6.0 15.0 0.00 0.00 0.00 35 1003.0
20260505194556 78 234 7.0 18.0 0.00 0.00 0.00 36 1003.0
20260505193053 80 211 7.0 17.0 0.00 0.00 0.00 38 1003.3
20260505191552 81 217 4.0 12.0 0.00 0.00 0.00 41 1003.3
20260505190052 80 250 4.0 15.0 0.00 0.00 0.00 42 1003.5
20260505184547 81 223 5.0 10.0 0.00 0.00 0.00 45 1003.8
20260505183054 80 162 5.0 11.0 0.00 0.00 0.00 46 1004.0
20260505181543 80 217 4.0 15.0 0.00 0.00 0.00 43 1004.3
20260505180046 80 190 6.0 14.0 0.00 0.00 0.00 45 1004.7
20260505174550 78 94 4.0 11.0 0.00 0.00 0.00 48 1004.7
20260505173040 78 223 5.0 12.0 0.00 0.00 0.00 45 1004.9
20260505171545 80 202 5.0 10.0 0.00 0.00 0.00 47 1004.7
20260505170035 79 194 4.0 10.0 0.00 0.00 0.00 48 1004.8
20260505164535 76 200 3.0 7.0 0.00 0.00 0.00 50 1005.1
20260505163033 76 226 3.0 7.0 0.00 0.00 0.00 48 1005.4
20260505161531 76 232 2.0 7.0 0.00 0.00 0.00 49 1005.6
20260505153026 75 205 4.0 9.0 0.00 0.00 0.00 53 1006.0
20260505151522 74 193 3.0 10.0 0.00 0.00 0.00 54 1006.2
20260505124550 64 210 3.0 8.0 0.00 0.00 0.00 66 1006.9
20260505123053 63 217 2.0 7.0 0.00 0.00 0.00 67 1007.0
20260505121547 63 205 2.0 4.0 0.00 0.00 0.00 68 1007.1
20260505120050 62 182 1.0 7.0 0.00 0.00 0.00 68 1006.8
20260505114551 61 200 3.0 6.0 0.00 0.00 0.00 69 1006.7
20260505113043 61 229 4.0 8.0 0.00 0.00 0.00 69 1006.9
20260505111541 61 221 4.0 8.0 0.00 0.00 0.00 69 1006.7
20260505101546 60 231 5.0 11.0 0.00 0.00 0.00 68 1006.3
20260505100037 61 203 4.0 8.0 0.00 0.00 0.00 68 1006.1
20260505094538 61 231 3.0 8.0 0.00 0.00 0.00 68 1005.9
20260505093032 59 260 2.0 7.0 0.00 0.00 0.00 71 1005.9
20260505091534 59 242 2.0 5.0 0.00 0.00 0.00 71 1005.8
20260505090028 60 236 1.0 5.0 0.00 0.00 0.00 70 1005.8
20260505084527 60 202 0.0 5.0 0.00 0.00 0.00 70 1005.9
20260505083025 61 194 0.0 5.0 0.00 0.00 0.00 69 1005.8
20260505081525 61 209 2.0 9.0 0.00 0.00 0.00 68 1005.7
20260505080021 61 172 4.0 8.0 0.00 0.00 0.00 67 1005.7
20260505074520 62 227 4.0 10.0 0.00 0.00 0.00 65 1005.6
20260505073020 62 182 3.0 10.0 0.00 0.00 0.00 65 1005.5
20260505071529 62 198 2.0 8.0 0.00 0.00 0.00 64 1005.3
20260505070015 62 201 2.0 8.0 0.00 0.00 0.00 63 1005.4
20260505064513 63 216 3.0 5.0 0.00 0.00 0.00 62 1005.5
20260505063012 63 205 2.0 5.0 0.00 0.00 0.00 60 1005.7
20260505061517 64 204 3.0 7.0 0.00 0.00 0.00 59 1005.7
20260505060033 64 212 4.0 9.0 0.00 0.00 0.00 58 1005.7
20260505054512 64 180 4.0 8.0 0.00 0.00 0.00 58 1005.9
20260505053009 64 222 3.0 8.0 0.00 0.00 0.00 58 1005.9
20260505051517 64 256 5.0 13.0 0.00 0.00 0.00 55 1006.0
20260505041604 62 193 2.0 3.0 0.00 0.00 0.00 58 1005.7
20260505040057 63 205 0.0 7.0 0.00 0.00 0.00 57 1005.6
20260505034557 63 202 1.0 5.0 0.00 0.00 0.00 56 1005.5
20260505033057 64 193 0.0 3.0 0.00 0.00 0.00 55 1005.3
20260505031558 64 198 0.0 5.0 0.00 0.00 0.00 53 1005.3
20260505030155 65 207 1.0 5.0 0.00 0.00 0.00 53 1005.4
20260505024604 65 179 2.0 6.0 0.00 0.00 0.00 53 1005.4
20260505023056 66 176 2.0 7.0 0.00 0.00 0.00 51 1005.5
20260505021554 66 215 2.0 9.0 0.00 0.00 0.00 50 1005.7
20260505020053 66 201 2.0 4.0 0.00 0.00 0.00 51 1005.7
20260505014553 66 80 2.0 7.0 0.00 0.00 0.00 50 1005.6
20260505013107 67 211 2.0 8.0 0.00 0.00 0.00 49 1005.6
20260505011558 67 194 3.0 10.0 0.00 0.00 0.00 49 1005.4
20260505004552 67 208 3.0 8.0 0.00 0.00 0.00 50 1005.2
20260505003056 67 182 2.0 10.0 0.00 0.00 0.00 49 1005.0
20260505001551 67 194 2.0 10.0 0.00 0.00 0.00 49 1004.9
20260505000059 68 198 3.0 10.0 0.00 0.00 0.00 49 1004.8
20260504234549 68 198 2.0 10.0 0.00 0.00 0.00 48 1004.6
20260504233055 69 197 2.0 8.0 0.00 0.00 0.00 47 1004.7
20260504231550 70 213 3.0 10.0 0.00 0.00 0.00 44 1004.4
20260504230056 71 251 5.0 14.0 0.00 0.00 0.00 42 1004.6